Regional Weather Roundup
Issued by NWS Albany, NY

Home | Current Version | Previous Version | Graphics & Text | Print | Product List | Glossary Off
Versions: 1 2 3 4 5 6 7 8 9 10 11 12 13 14 15 16 17 18 19 20 21 22 23 24 25 26 27

000
ASUS41 KALY 190210
RWRALY

NEW YORK STATE HOURLY WEATHER ROUNDUP
NATIONAL WEATHER SERVICE ALBANY NY
1000 PM EDT MON SEP 18 2017

NOTE: "FAIR" INDICATES FEW OR NO CLOUDS BELOW 12,000 FEET WITH NO
SIGNIFICANT WEATHER AND/OR NO OBSTRUCTIONS TO VISIBILITY.

NYZ032-033-038>043-046>054-057>066-NYZ062>081-082-084-190300-
EAST


CITY           SKY/WX    TMP DP  RH WIND       PRES   REMARKS
ALBANY         PTCLDY    69  60  73 CALM      30.13S
GLENS FALLS    CLEAR     67  63  87 SW5       30.12S
POUGHKEEPSIE   CLEAR     65  62  90 CALM      30.11S
NEWBURGH       PTCLDY    68  66  94 VRB6      30.13F
MONTGOMERY     CLEAR     63  62  97 CALM      30.12S
WHITE PLAINS   CLOUDY    69  65  86 N5        30.10F
ISLIP          CLOUDY    71  68  90 NE10      30.08F
NEW YORK CITY  CLOUDY    71  69  93 NE9       30.09S
CENTRAL PARK   CLOUDY    72  67  84 E7        30.12F
$$

NYZ005>009-017-018-044>046-055-056-190300-
CENTRAL


CITY           SKY/WX    TMP DP  RH WIND       PRES   REMARKS
FULTON         PTCLDY    66  64  93 CALM      30.06S
SYRACUSE       MOCLDY    71  63  75 SE5       30.04F
ROME           CLOUDY    70  64  81 E5        30.09R
ELMIRA         CLEAR     64  62  93 CALM      30.08S
BINGHAMTON     PTCLDY    66  60  81 S6        30.13R
MONTICELLO     PTCLDY    64  62  93 CALM      30.17R
$$

NYZ026>034-041>043-087-190300-
NORTH


CITY           SKY/WX    TMP DP  RH WIND       PRES   REMARKS
WATERTOWN      CLEAR     66  65  96 E3        30.05S
FORT DRUM      NOT AVBL
OGDENSBURG     FAIR      65  64  94 CALM      30.06R
MASSENA        CLEAR     65  64  97 CALM      30.07S
SARANAC LAKE   CLOUDY    63  63 100 CALM      30.14S
PLATTSBURGH    CLOUDY    70  67  90 S7        30.08S
$$

NYZ001>004-010>016-019>021-085-190300-
WEST


CITY           SKY/WX    TMP DP  RH WIND       PRES   REMARKS
NIAGARA FALLS  CLEAR     72  65  78 CALM      30.04S
BUFFALO        MOCLDY    71  65  81 W3        30.05S
DUNKIRK        CLEAR     63  63 100 CALM      30.05F FOG
JAMESTOWN      CLEAR     68  63  84 NE5       30.10S
WELLSVILLE     CLOUDY    71  60  68 S3        30.13S
ROCHESTER      MOCLDY    70  68  93 CALM      30.05S
PENN YAN       CLEAR     64  58  80 CALM      30.08S
$$

             KEY
       WCI = WIND CHILL INDEX
       VSB = VISIBILITY
       HX  = HEAT INDEX
$$




USA.gov is the U.S. government's official web portal to all federal, state and local government web resources and services.